Date,TemperatureHighF,TemperatureAvgF,TemperatureLowF,DewpointHighF,DewpointAvgF,DewpointLowF,HumidityHigh,HumidityAvg,HumidityLow,PressureMaxIn,PressureMinIn,WindSpeedMaxMPH,WindSpeedAvgMPH,GustSpeedMaxMPH,PrecipitationSumIn
2013-2-1,31.0,25.0,20.0,14.0,9.7,4.0,65,52,39,30.15,29.70,7,3,20,0.01
2013-2-2,32.0,22.0,16.0,17.0,9.8,5.0,83,60,34,30.24,30.04,5,1,12,0.00
2013-2-3,33.0,22.7,15.0,20.0,15.4,11.0,86,74,51,30.04,29.76,3,0,8,0.05
2013-2-4,33.0,23.5,18.0,18.0,11.0,6.0,84,60,39,29.94,29.76,6,1,14,0.02
2013-2-5,28.0,23.9,20.0,21.0,18.2,9.0,86,79,61,29.98,29.90,2,0,5,0.01
2013-2-6,39.0,29.1,22.0,27.0,18.7,2.0,89,67,40,30.32,29.90,5,1,13,0.02
2013-2-7,32.0,23.5,16.0,13.0,6.1,1.0,65,47,34,30.50,30.32,4,0,9,0.02
2013-2-8,29.0,26.6,24.0,26.0,21.5,14.0,90,82,62,30.36,29.63,10,4,25,0.00
2013-2-9,26.0,21.1,14.0,23.0,17.8,10.0,89,87,83,30.28,29.72,13,6,27,0.16
2013-2-10,34.0,23.1,12.0,27.0,14.9,7.0,83,71,50,30.44,30.28,7,1,17,0.26
2013-2-11,42.0,34.7,23.0,40.0,31.6,15.0,92,88,68,30.33,29.67,4,1,12,0.28
2013-2-12,45.0,37.0,34.0,36.0,28.0,24.0,92,71,50,29.95,29.69,7,2,16,0.01
2013-2-13,47.0,35.7,26.0,29.0,23.6,19.0,87,63,38,29.93,29.70,2,0,7,0.00
2013-2-14,47.0,34.8,26.0,29.0,25.6,22.0,89,71,42,29.99,29.71,4,0,9,0.07
2013-2-15,53.0,40.4,31.0,34.0,29.2,26.0,86,66,43,30.00,29.91,5,1,18,0.04
2013-2-16,40.0,31.6,27.0,30.0,22.2,14.0,88,69,48,29.96,29.72,6,2,13,0.05
2013-2-17,30.0,22.1,14.0,14.0,5.3,0.0,61,48,33,29.87,29.59,11,5,24,0.02
2013-2-18,36.0,22.5,13.0,11.0,5.9,1.0,60,49,31,30.19,29.87,6,2,16,0.00
2013-2-19,42.0,34.0,22.0,38.0,25.0,10.0,95,71,48,30.19,29.64,5,1,13,0.23
2013-2-20,35.0,27.9,21.0,30.0,15.3,10.0,82,59,48,29.90,29.65,10,4,19,0.11
2013-2-21,37.0,25.0,20.0,17.0,12.5,10.0,69,59,43,30.29,29.89,8,4,19,0.00
2013-2-22,38.0,28.7,19.0,26.0,19.3,13.0,80,68,49,30.40,30.26,6,1,19,0.00
2013-2-23,36.0,33.4,32.0,33.0,29.7,26.0,91,87,78,30.28,29.83,4,1,14,0.17
2013-2-24,41.0,35.2,30.0,35.0,31.0,23.0,91,85,73,29.94,29.73,5,2,14,0.05
2013-2-25,48.0,36.1,29.0,29.0,24.9,22.0,79,65,45,30.24,29.94,6,2,16,0.01
2013-2-26,41.0,33.8,26.0,29.0,25.2,21.0,86,71,53,30.31,29.99,5,1,16,0.06
2013-2-27,42.0,37.5,32.0,40.0,35.2,28.0,92,90,86,29.99,29.52,9,2,24,1.52
2013-2-28,48.0,38.7,33.0,42.0,34.0,31.0,92,83,60,29.63,29.54,2,0,6,0.08